Showing default

OPS 8464 (TRANSIT 5B-7), 1514

Orbit data source: Space-Track

OPS 8464 (TRANSIT 5B-7), 1514 is a payload satellite owned by USN BuWeps (US) in LEO that was launched on Fri, 13 Aug 1965 UTC via a THOR ABLESTAR launch vehicle from the Air Force Western Test Range (AFWTR). Payload-class satellites include a variety of spacecraft equipped with specific instruments for various scientific and technological missions. These include communications satellites like Starlink; space stations such as the ISS; scientific satellites like the Hubble; Earth observation satellites from companies like Planet Labs, Umbra, and HawkEye 360; GPS; miniature CubeSats for education and research; and military/defense satellites.

Loading next visibility...
Identifier
1514, 1965-065F
Orbit
LEO
Country
Flag of USUS
Related business
Manufacturer
NAFI
Mission
Spacecraft
Bus & Motor
TRANSIT 5, Unknown motor
Mass
~54 kg wet, ~54 kg dry
Launch date (UTC)
1965-08-13 (60 years ago)
Launch vehicle
THOR ABLESTAR
Launch site
Air Force Western Test Range (AFWTR)
Object type
Payload
Rocket body
Debris
Shape & HBR
Unknown
Radar Cross Section
Large (>1 m²)

Expand to show TLE details & history
Last TLE update: 14 hours ago

TLE from 14 hours ago
0 OPS 8464 (TRANSIT 5B-7)
1 01514U 65065F   25310.76359677  .00000134  00000-0  24143-3 0  9999
2 01514  89.9847 228.1096 0072039  67.5449 325.7694 13.35325940931589
Epoch: 2025-11-06T18:19Z
TLE epoch observation values (Epoch: 2025-11-06T18:19:34.760Z)
Latitude
32.90492°
Longitude
-92.99263°
Altitude
1,086.463 km
Speed
7.334 km/s
True Right ascension
15h 12m 28s
True Declination
32° 45' 19"
Sunlit
Object was in daylight at epoch
Visualization orbit readout
Latitude
Unknown
Longitude
Unknown
Altitude
Unknown
Speed
Unknown
Apparent Right ascension
Unknown
Apparent Declination
Unknown
Sunlit
N/A
Visualization observer readout
Local Sidereal Time
04:03:19
Azimuth
Unknown
Elevation
Unknown
Doppler factor
Unknown
Orbital elements
Apogee altitude
1,177.856 km
Perigee altitude
1,069.769 km
Semi-major axis
7,501.949 km
Eccentricity
0.0072
Inclination
89.9847°
RAAN
228.1096°
Arg. of periapsis
67.5449°
True anomaly
325.30156°
Mean anomaly
325.7694°
Eccentric anomaly
325.53583°
Mean motion
3.34027 °/min
Orbital period
107.78 mins
BSTAR
0.00024143
Loading maneuver chart data...
Computing Atmospheric mass density...
Loading historical data...
Loading historical data...
Loading historical data...
Loading historical data...
Loading historical data...
Loading historical data...
Loading historical data...

Documentation

Showing up to 5 results
|